This is the latest recevied weather packets stored in our database for station/object K5RWS. If no packets are shown the sender has not sent any weather packets the latest 10 day(s).
| Time | Temp. | Humidity | Pressure | Rain* | Wind** | Luminosity | Snow |
|---|---|---|---|---|---|---|---|
| 1777969274 | 16.11° C | 31% | 1014.9 hPa | 0 mm | - | 0 W/m² | - |
| 1777968970 | 16.11° C | 31% | 1014.7 hPa | 0 mm | - | 0 W/m² | - |
| 1777968668 | 15.56° C | 31% | 1014.9 hPa | 0 mm | - | 0 W/m² | - |
| 1777968363 | 16.11° C | 31% | 1014.8 hPa | 0 mm | - | 0 W/m² | - |
| 1777968060 | 16.11° C | 31% | 1014.8 hPa | 0 mm | - | 0 W/m² | - |
| 1777967756 | 16.11° C | 31% | 1015 hPa | 0 mm | - | 0 W/m² | - |
| 1777967453 | 16.67° C | 30% | 1015 hPa | 0 mm | - | 0 W/m² | - |
| 1777967150 | 16.67° C | 30% | 1014.8 hPa | 0 mm | - | 0 W/m² | - |
| 1777966847 | 16.67° C | 30% | 1014.9 hPa | 0 mm | - | 0 W/m² | - |
| 1777966544 | 16.67° C | 29% | 1014.6 hPa | 0 mm | - | 0 W/m² | - |
| 1777966243 | 16.67° C | 29% | 1014.5 hPa | 0 mm | - | 0 W/m² | - |
| 1777965938 | 16.67° C | 29% | 1014.5 hPa | 0 mm | - | 0 W/m² | - |
| 1777965635 | 17.22° C | 29% | 1014.6 hPa | 0 mm | - | 0 W/m² | - |
| 1777965330 | 17.22° C | 29% | 1014.5 hPa | 0 mm | - | 0 W/m² | - |
| 1777965029 | 17.22° C | 28% | 1014.7 hPa | 0 mm | - | 0 W/m² | - |
| 1777964726 | 17.22° C | 28% | 1014.7 hPa | 0 mm | - | 0 W/m² | - |
| 1777964422 | 16.67° C | 28% | 1014.6 hPa | 0 mm | - | 0 W/m² | - |
| 1777964118 | 16.67° C | 27% | 1014.3 hPa | 0 mm | - | 0 W/m² | - |
| 1777963815 | 17.22° C | 27% | 1014.2 hPa | 0 mm | - | 0 W/m² | - |
| 1777963511 | 17.22° C | 27% | 1014.1 hPa | 0 mm | - | 0 W/m² | - |
| 1777963210 | 17.22° C | 27% | 1014.1 hPa | 0 mm | - | 0 W/m² | - |
| 1777962907 | 17.78° C | 27% | 1014.2 hPa | 0 mm | - | 0 W/m² | - |
| 1777962608 | 17.78° C | 26% | 1014.1 hPa | 0 mm | - | 0 W/m² | - |
| 1777962305 | 17.78° C | 26% | 1014.1 hPa | 0 mm | - | 0 W/m² | - |
| 1777962002 | 17.78° C | 26% | 1014.2 hPa | 0 mm | - | 0 W/m² | - |
* Rain latest hour (hover to see other rain measurements)
** Current wind speed in m/s (hover to see current wind gust speed)